Погода в Кривцове

Россия / Белгородская область     50°47′49″N   36°45′15″E
темп.,
°C
ветер,
м/с
пор.,
м/с
влажн.,
%
обл.,
%
осадки,
мм/ч
давл.,
гПа
погр.,
м
26 сентября, вс
вс2600:00+10зюз51190100 0.8 1011666
03:00+10зюз61290100 1.8 1010515
06:00+12з61391100 0.3 1009677
09:00+13зсз7118237 0.4 10101077
12:00+12зсз8117497 0.1 10121213
15:00+12сз81266100 0.1 10131421
18:00+11сз6127117 0.1 1013958
21:00+8сз6138610 0.1 1014648
27 сентября, пн
пн2700:00+8сз6128751 0.0 1015536
03:00+8сз61183100 0.0 1016614
06:00+8ссз61185100 0.0 1017698
09:00+9ссз61082100 0.0 1018698
12:00+13с676566 0.1 10191162
15:00+12с576699 0.3 1019631
18:00+11ссв487694 0.3 1020433
21:00+10ссв386899 0.3 1021298
28 сентября, вт
вт2800:00+10ссз3665100 0.0 1021173
03:00+9с4882100 0.1 1021323
06:00+8с488897 0.1 1022389
09:00+9ссв5884100 0.2 1022609
12:00+8св5884100 0.5 1024573
15:00+10ссв566655 0.6 1025862
18:00+9св5770100 0.0 1026673
21:00+7св5881100 0.0 1028794
29 сентября, ср
ср2900:00+7св5783100 0.0 1029804
03:00+7св5880100 0.0 1030581
06:00+5св488169 0.0 1031407
09:00+7св58665 0.0 1032782
12:00+11всв56455 0.0 10321350
15:00+12св45405 0.0 10311471
18:00+9св37511 0.0 1032144
21:00+6св37625 0.0 1033139
30 сентября, чт
чт3000:00+5св3568100 0.0 103397
03:00+4св3371100 0.0 103450
06:00+3св337443 0.0 103455
09:00+7всв355855 0.0 1035327
12:00+11всв34435 0.0 10341197
15:00+12всв33405 0.0 10331490
18:00+9св22525 0.0 103323
21:00+7всв33615 0.0 103441